Location: Ca�n Batista
(41.4099°N, 1.7752°E)
Time: 14:47:35
(UTC+00:00)

Cosmos 1703 Rocket - Pass Details

Date: 03 March 2021
Orbit: 604 x 634 km, 82.5° (Epoch: 22 April)

Event Time Altitude Azimuth Distance (km) Brightness Sun altitude
Rises 18:48:54 0° 360° (N) 2,907 7.0 -12.6°
Reaches altitude 10° 18:51:17 10° 8° (N) 1,991 6.1 -13.0°
Maximum altitude 18:55:23 38° 77° (ENE) 951 4.0 -13.8°
Drops below altitude 10° 18:59:26 10° 146° (SE) 1,960 5.8 -14.6°
Enters shadow 18:59:29 10° 146° (SE) 1,976 5.8 -14.6°
